Wahpeton, ND

4:21 PM CST on February 10, 2016 (GMT -0600)
Stern

Weather History for KBWP - November, 2012

Change the Weather History Date:

Sunday, November 18, 2012

  Actual Average (KFFM) Record (KFFM)
Temperature  
Mean Temperature 42 °F -  
Max Temperature 53 °F 34 °F 61 °F (1953)
Min Temperature 32 °F 20 °F -2 °F (1989)
Degree Days  
Heating Degree Days 22    
Moisture  
Dew Point 34 °F    
Average Humidity 72    
Maximum Humidity 93    
Minimum Humidity 51    
Precipitation  
Precipitation 0.00 in - - ()
Sea Level Pressure  
Sea Level Pressure 29.96 in    
Wind  
Wind Speed 10 mph (SSE)    
Max Wind Speed 17 mph    
Max Gust Speed 17 mph    
Visibility 10 miles    
Events      
Averages and records for this station are not official NWS values.
T = Trace of Precipitation, MM = Missing Value Source: NWS Daily Summary

Daily Weather History Graph

Daily Weather History Graph

Search for Another Location

Airport or City:

Trip Planner

Search our weather history database for the weather conditions in past years. The results will help you decide how hot, cold, wet, or windy it might be!

Date:

Astronomy

Nov. 18, 2012 Rise Set
Actual Time 7:32 AM CST 4:50 PM CST
Civil Twilight 6:59 AM CST 5:23 PM CST
Nautical Twilight 6:22 AM CST 6:00 PM CST
Astronomical Twilight 5:47 AM CST 6:35 PM CST
Moon 11:56 AM CST (11/18) 10:16 PM CST (11/18)
Length of Visible Light 10h 23m
Length of Day
9h 17m
Waxing Crescent, 30% of the Moon is Illuminated
Nov 18
Waxing Crescent
Nov 20
First Quarter
Nov 28
Full
Dec 6
Last Quarter
Dec 13
New

Hourly Weather History & Observations

Time (CST) Temp. Windchill Dew Point Humidity Pressure Visibility Wind Dir Wind Speed Gust Speed Precip Events Conditions
12:15 AM 39.2 °F 31.2 °F 32.0 °F 75% 30.00 in 10.0 mi SSE 13.8 mph - N/A   Clear
12:35 AM 39.2 °F 31.6 °F 32.0 °F 75% 30.00 in 10.0 mi SSE 12.7 mph - N/A   Clear
12:55 AM 39.2 °F 32.0 °F 32.0 °F 75% 30.00 in 10.0 mi SSE 11.5 mph - N/A   Clear
1:15 AM 37.4 °F 29.8 °F 32.0 °F 81% 30.00 in 10.0 mi SE 11.5 mph - N/A   Clear
1:35 AM 37.4 °F 29.8 °F 32.0 °F 81% 30.00 in 10.0 mi SSE 11.5 mph - N/A   Clear
1:55 AM 37.4 °F 30.3 °F 32.0 °F 81% 29.99 in 10.0 mi SSE 10.4 mph - N/A   Clear
2:15 AM 37.4 °F 30.3 °F 32.0 °F 81% 29.99 in 10.0 mi SSE 10.4 mph - N/A   Clear
2:35 AM 37.4 °F 30.3 °F 32.0 °F 81% 30.00 in 10.0 mi SSE 10.4 mph - N/A   Clear
2:55 AM 35.6 °F 28.6 °F 32.0 °F 87% 29.99 in 10.0 mi SSE 9.2 mph - N/A   Clear
3:15 AM 35.6 °F 28.6 °F 32.0 °F 87% 29.99 in 10.0 mi SSE 9.2 mph - N/A   Clear
3:35 AM 35.6 °F 28.6 °F 32.0 °F 87% 29.99 in 10.0 mi SSE 9.2 mph - N/A   Clear
3:55 AM 35.6 °F 28.0 °F 32.0 °F 87% 29.99 in 10.0 mi SSE 10.4 mph - N/A   Clear
4:15 AM 35.6 °F 28.0 °F 32.0 °F 87% 29.98 in 10.0 mi SSE 10.4 mph - N/A   Clear
4:35 AM 33.8 °F 27.0 °F 32.0 °F 93% 29.98 in 10.0 mi SSE 8.1 mph - N/A   Clear
4:55 AM 33.8 °F 27.7 °F 32.0 °F 93% 29.98 in 10.0 mi SSE 6.9 mph - N/A   Clear
5:15 AM 33.8 °F 27.7 °F 30.2 °F 87% 29.98 in 10.0 mi SSE 6.9 mph - N/A   Clear
5:35 AM 33.8 °F 27.0 °F 30.2 °F 87% 29.98 in 10.0 mi SSE 8.1 mph - N/A   Clear
5:55 AM 33.8 °F 26.4 °F 30.2 °F 87% 29.98 in 10.0 mi SSE 9.2 mph - N/A   Clear
6:15 AM 33.8 °F 26.4 °F 32.0 °F 93% 29.98 in 10.0 mi SSE 9.2 mph - N/A   Clear
6:35 AM 32.0 °F 24.2 °F 30.2 °F 93% 29.98 in 10.0 mi SSE 9.2 mph - N/A   Clear
6:55 AM 32.0 °F 24.8 °F 30.2 °F 93% 29.98 in 10.0 mi SSE 8.1 mph - N/A   Clear
7:15 AM 32.0 °F 26.4 °F 30.2 °F 93% 29.97 in 10.0 mi SSE 5.8 mph - N/A   Clear
7:35 AM 32.0 °F 24.2 °F 30.2 °F 93% 29.98 in 10.0 mi SSE 9.2 mph - N/A   Clear
7:55 AM 32.0 °F 25.6 °F 30.2 °F 93% 29.98 in 10.0 mi SSE 6.9 mph - N/A   Clear
8:15 AM 32.0 °F 26.4 °F 30.2 °F 93% 29.98 in 10.0 mi SSE 5.8 mph - N/A   Clear
8:35 AM 32.0 °F 24.8 °F 30.2 °F 93% 29.99 in 10.0 mi SSE 8.1 mph - N/A   Clear
8:55 AM 33.8 °F 27.7 °F 32.0 °F 93% 29.99 in 10.0 mi SSE 6.9 mph - N/A   Clear
9:15 AM 35.6 °F 30.7 °F 32.0 °F 87% 29.99 in 10.0 mi South 5.8 mph - N/A   Clear
9:35 AM 37.4 °F 29.8 °F 32.0 °F 81% 29.99 in 10.0 mi South 11.5 mph - N/A   Clear
9:55 AM 37.4 °F 31.4 °F 32.0 °F 81% 29.99 in 10.0 mi South 8.1 mph - N/A   Clear
10:15 AM 41.0 °F 37.1 °F 33.8 °F 76% 29.98 in 10.0 mi SSE 5.8 mph - N/A   Clear
10:35 AM 41.0 °F 38.0 °F 33.8 °F 76% 29.99 in 10.0 mi SSE 4.6 mph - N/A   Clear
10:55 AM 42.8 °F 38.6 °F 33.8 °F 70% 29.99 in 10.0 mi South 6.9 mph - N/A   Clear
11:15 AM 42.8 °F 39.3 °F 33.8 °F 70% 29.99 in 10.0 mi SSE 5.8 mph - N/A   Clear
11:35 AM 44.6 °F 40.7 °F 33.8 °F 66% 29.98 in 10.0 mi South 6.9 mph - N/A   Clear
11:55 AM 46.4 °F 42.4 °F 35.6 °F 66% 29.97 in 10.0 mi South 8.1 mph - N/A   Clear
12:15 PM 46.4 °F 41.5 °F 35.6 °F 66% 29.97 in 10.0 mi SSE 10.4 mph - N/A   Clear
12:35 PM 50.0 °F - 35.6 °F 58% 29.97 in 10.0 mi SSE 11.5 mph - N/A   Clear
12:55 PM 50.0 °F - 35.6 °F 58% 29.96 in 10.0 mi SSE 9.2 mph - N/A   Clear
1:15 PM 51.8 °F - 35.6 °F 54% 29.95 in 10.0 mi SSE 11.5 mph - N/A   Clear
1:35 PM 51.8 °F - 35.6 °F 54% 29.95 in 10.0 mi SSE 11.5 mph - N/A   Clear
1:55 PM 53.6 °F - 35.6 °F 51% 29.95 in 10.0 mi SSE 9.2 mph 17.3 mph N/A   Clear
2:15 PM 53.6 °F - 35.6 °F 51% 29.94 in 10.0 mi South 9.2 mph - N/A   Clear
2:35 PM 53.6 °F - 35.6 °F 51% 29.93 in 10.0 mi SE 10.4 mph - N/A   Clear
2:55 PM 53.6 °F - 35.6 °F 51% 29.93 in 10.0 mi SSE 12.7 mph - N/A   Clear
3:15 PM 53.6 °F - 35.6 °F 51% 29.93 in 10.0 mi SSE 13.8 mph - N/A   Clear
3:35 PM 53.6 °F - 35.6 °F 51% 29.94 in 10.0 mi SSE 11.5 mph 17.3 mph N/A   Clear
3:55 PM 51.8 °F - 35.6 °F 54% 29.94 in 10.0 mi SSE 10.4 mph - N/A   Clear
4:15 PM 51.8 °F - 35.6 °F 54% 29.94 in 10.0 mi SE 8.1 mph - N/A   Clear
4:35 PM 50.0 °F - 35.6 °F 58% 29.94 in 10.0 mi SE 9.2 mph - N/A   Clear
4:55 PM 50.0 °F - 35.6 °F 58% 29.94 in 10.0 mi SE 8.1 mph - N/A   Scattered Clouds
5:15 PM 50.0 °F - 35.6 °F 58% 29.93 in 10.0 mi ESE 11.5 mph - N/A   Scattered Clouds
5:35 PM 50.0 °F - 33.8 °F 54% 29.93 in 10.0 mi ESE 11.5 mph - N/A   Scattered Clouds
5:55 PM 48.2 °F - 33.8 °F 58% 29.93 in 10.0 mi ESE 11.5 mph - N/A   Mostly Cloudy
6:15 PM 46.4 °F 41.9 °F 33.8 °F 62% 29.93 in 10.0 mi ESE 9.2 mph - N/A   Mostly Cloudy
6:35 PM 48.2 °F - 35.6 °F 62% 29.93 in 10.0 mi SE 11.5 mph - N/A   Mostly Cloudy
6:55 PM 50.0 °F - 35.6 °F 58% 29.93 in 10.0 mi SE 13.8 mph - N/A   Scattered Clouds
7:15 PM 48.2 °F - 35.6 °F 62% 29.93 in 10.0 mi SE 13.8 mph - N/A   Mostly Cloudy
7:35 PM 50.0 °F - 35.6 °F 58% 29.93 in 10.0 mi SSE 17.3 mph - N/A   Mostly Cloudy
7:55 PM 48.2 °F - 35.6 °F 62% 29.93 in 10.0 mi SSE 13.8 mph - N/A   Mostly Cloudy
8:15 PM 46.4 °F 40.1 °F 35.6 °F 66% 29.93 in 10.0 mi SSE 15.0 mph - N/A   Mostly Cloudy
8:35 PM 46.4 °F 40.7 °F 35.6 °F 66% 29.93 in 10.0 mi SSE 12.7 mph - N/A   Mostly Cloudy
8:55 PM 46.4 °F 40.4 °F 35.6 °F 66% 29.92 in 10.0 mi SSE 13.8 mph - N/A   Scattered Clouds
9:15 PM 46.4 °F 40.7 °F 35.6 °F 66% 29.93 in 10.0 mi SE 12.7 mph - N/A   Scattered Clouds
9:35 PM 46.4 °F 40.7 °F 35.6 °F 66% 29.93 in 10.0 mi SSE 12.7 mph - N/A   Clear
9:55 PM 44.6 °F 38.1 °F 35.6 °F 71% 29.93 in 10.0 mi SSE 13.8 mph - N/A   Scattered Clouds
10:35 PM 44.6 °F 38.4 °F 35.6 °F 71% 29.93 in 10.0 mi SSE 12.7 mph - N/A   Clear
11:15 PM 44.6 °F 38.1 °F 33.8 °F 66% 29.93 in 10.0 mi SSE 13.8 mph - N/A   Scattered Clouds
11:35 PM 44.6 °F 38.4 °F 33.8 °F 66% 29.92 in 10.0 mi SE 12.7 mph - N/A   Clear
11:55 PM 42.8 °F 36.2 °F 33.8 °F 70% 29.92 in 10.0 mi SE 12.7 mph - N/A   Clear